Вернуться в каталог

COSMOS 505

АктивенВоенныеLEO
NORAD 6118·PAYLOAD·🇷🇺 Russia

Запущен Jul 20, 1972 с Plesetsk Cosmodrome

Loading…

Ближайшие Пролёты (ближайшие 24 часа)

TLE

СвежийSource: Space-Track

Эпоха: Sep 14, 2026, 13:57 UTC

1 06118U 72057B   26257.58178208 -.00000024  00000-0 -46041-4 0  9995
2 06118  74.0242  92.1112 0092122  68.2055 308.1798 12.59823489490331

Отслеживайте COSMOS 505 в реальном времени с AllMySat

Download on the App Store